Weather History for KFWN - September, 2012

Change the Weather History Date:

Saturday, September 29, 2012

  Actual Average Record
Temperature  
Mean Temperature 58 °F -  
Max Temperature 63 °F 67 °F 86 °F (1948)
Min Temperature 55 °F 43 °F 28 °F (1957)
Degree Days  
Heating Degree Days 6    
Growing Degree Days 8 (Base 50)    
Moisture  
Dew Point 54 °F    
Average Humidity 90    
Maximum Humidity 100    
Minimum Humidity 67    
Precipitation  
Precipitation 0.03 in - - ()
Sea Level Pressure  
Sea Level Pressure 29.94 in    
Wind  
Wind Speed 3 mph (NE)    
Max Wind Speed 7 mph    
Max Gust Speed -    
Visibility 6 miles    
Events Rain    
Averages and records for this station are not official NWS values.
T = Trace of Precipitation, MM = Missing Value Source: NWS Daily Summary

Daily Weather History Graph

Daily Weather History Graph

Search for Another Location

Airport or City:

Trip Planner

Search our weather history database for the weather conditions in past years. The results will help you decide how hot, cold, wet, or windy it might be!

Date:

Astronomy

Sep. 29, 2012 Rise Set
Actual Time 6:53 AM EDT 6:42 PM EDT
Civil Twilight 6:26 AM EDT 7:10 PM EDT
Nautical Twilight 5:54 AM EDT 7:42 PM EDT
Astronomical Twilight 5:21 AM EDT 8:14 PM EDT
Moon 6:13 PM EDT (9/29) 6:22 AM EDT (9/29)
Length of Visible Light 12h 44m
Length of Day
11h 49m
Full, 100% of the Moon is Illuminated
Sep 29
Full
Sep 29
Full
Oct 8
Last Quarter
Oct 15
New
Oct 21
First Quarter

Hourly Weather History & Observations

Time (EDT) Temp. Dew Point Humidity Pressure Visibility Wind Dir Wind Speed Gust Speed Precip Events Conditions
12:49 AM 55.4 °F 55.4 °F 100% 29.96 in 2.0 mi NE 5.8 mph - N/A   Overcast
12:53 AM 55.9 °F 55.0 °F 97% 29.96 in 2.0 mi NE 5.8 mph - N/A   Overcast
1:53 AM 55.9 °F 55.0 °F 97% 29.95 in 3.0 mi ENE 3.5 mph - N/A   Overcast
2:00 AM 55.4 °F 55.4 °F 100% 29.95 in 2.5 mi NE 4.6 mph - N/A   Overcast
2:26 AM 55.4 °F 53.6 °F 94% 29.94 in 1.8 mi ENE 4.6 mph - N/A   Overcast
2:34 AM 55.4 °F 53.6 °F 94% 29.94 in 2.0 mi ENE 3.5 mph - N/A   Overcast
2:53 AM 55.9 °F 54.0 °F 93% 29.94 in 2.0 mi Calm Calm - N/A   Overcast
3:01 AM 55.4 °F 53.6 °F 94% 29.95 in 1.5 mi Calm Calm - N/A   Overcast
3:12 AM 55.4 °F 53.6 °F 94% 29.95 in 1.2 mi Calm Calm - 0.01 in   Overcast
3:22 AM 55.4 °F 53.6 °F 94% 29.94 in 1.8 mi Calm Calm - 0.01 in   Overcast
3:38 AM 55.4 °F 53.6 °F 94% 29.94 in 2.0 mi Calm Calm - 0.01 in   Overcast
3:53 AM 55.9 °F 54.0 °F 93% 29.95 in 2.5 mi Calm Calm - 0.01 in   Overcast
4:04 AM 55.4 °F 55.4 °F 100% 29.95 in 3.0 mi Calm Calm - N/A   Overcast
4:33 AM 55.4 °F 53.6 °F 94% 29.94 in 7.0 mi Calm Calm - N/A   Overcast
4:53 AM 55.9 °F 54.0 °F 93% 29.94 in 7.0 mi Calm Calm - N/A   Overcast
5:53 AM 55.9 °F 53.1 °F 90% 29.95 in 10.0 mi Calm Calm - N/A   Overcast
6:53 AM 55.9 °F 54.0 °F 93% 29.94 in 10.0 mi Calm Calm - N/A   Overcast
7:49 AM 55.4 °F 53.6 °F 94% 29.94 in 4.0 mi ENE 5.8 mph - N/A   Overcast
7:53 AM 55.0 °F 53.1 °F 93% 29.94 in 2.0 mi ENE 6.9 mph - N/A   Overcast
8:00 AM 55.4 °F 53.6 °F 94% 29.94 in 1.2 mi ENE 5.8 mph - 0.01 in   Overcast
8:13 AM 55.4 °F 53.6 °F 94% 29.95 in 2.0 mi NE 4.6 mph - 0.01 in   Overcast
8:35 AM 55.4 °F 53.6 °F 94% 29.95 in 3.0 mi NE 3.5 mph - 0.01 in   Overcast
8:49 AM 55.4 °F 53.6 °F 94% 29.96 in 2.0 mi ENE 3.5 mph - 0.01 in   Overcast
8:53 AM 55.0 °F 54.0 °F 96% 29.96 in 1.8 mi NE 3.5 mph - 0.01 in   Overcast
9:02 AM 55.4 °F 53.6 °F 94% 29.96 in 1.5 mi NNE 4.6 mph - N/A   Overcast
9:15 AM 55.4 °F 53.6 °F 94% 29.95 in 2.5 mi NNE 4.6 mph - N/A   Overcast
9:25 AM 55.4 °F 53.6 °F 94% 29.95 in 3.0 mi NNE 3.5 mph - N/A   Overcast
9:38 AM 55.4 °F 53.6 °F 94% 29.96 in 8.0 mi North 3.5 mph - N/A   Overcast
9:46 AM 55.4 °F 53.6 °F 94% 29.96 in 9.0 mi NE 3.5 mph - N/A   Overcast
9:53 AM 55.9 °F 53.1 °F 90% 29.96 in 10.0 mi NE 4.6 mph - N/A   Overcast
10:20 AM 57.2 °F 53.6 °F 88% 29.95 in 10.0 mi NE 3.5 mph - N/A   Overcast
10:31 AM 57.2 °F 53.6 °F 88% 29.96 in 10.0 mi ENE 4.6 mph - N/A   Overcast
10:50 AM 57.2 °F 53.6 °F 88% 29.96 in 2.5 mi Calm Calm - 0.00 in Rain Light Rain
10:53 AM 57.0 °F 54.0 °F 89% 29.96 in 2.0 mi Calm Calm - 0.00 in Rain Light Rain
11:07 AM 55.4 °F 53.6 °F 94% 29.96 in 1.8 mi Calm Calm - 0.01 in Rain Light Rain
11:27 AM 55.4 °F 53.6 °F 94% 29.95 in 3.0 mi Calm Calm - 0.01 in Rain Light Rain
11:35 AM 57.2 °F 53.6 °F 88% 29.95 in 10.0 mi Calm Calm - 0.01 in   Overcast
11:53 AM 57.0 °F 54.0 °F 89% 29.95 in 10.0 mi Calm Calm - 0.01 in   Overcast
12:53 PM 57.9 °F 54.0 °F 87% 29.94 in 10.0 mi Calm Calm - N/A   Overcast
1:42 PM 60.8 °F 53.6 °F 77% 29.91 in 10.0 mi Calm Calm - N/A   Overcast
1:53 PM 60.1 °F 54.0 °F 80% 29.91 in 10.0 mi Calm Calm - N/A   Overcast
2:12 PM 60.8 °F 51.8 °F 72% 29.91 in 10.0 mi Calm Calm - N/A   Overcast
2:53 PM 62.1 °F 52.0 °F 70% 29.89 in 10.0 mi Calm Calm - N/A   Overcast
3:53 PM 62.1 °F 53.1 °F 72% 29.88 in 10.0 mi Calm Calm - N/A   Overcast
4:53 PM 62.1 °F 51.1 °F 67% 29.88 in 10.0 mi Calm Calm - N/A   Overcast
5:53 PM 61.0 °F 53.1 °F 75% 29.89 in 10.0 mi Calm Calm - N/A   Overcast
6:53 PM 57.9 °F 54.0 °F 87% 29.90 in 10.0 mi Calm Calm - N/A   Overcast
7:53 PM 57.0 °F 54.0 °F 89% 29.91 in 10.0 mi Calm Calm - N/A   Overcast
8:53 PM 55.9 °F 54.0 °F 93% 29.91 in 10.0 mi Calm Calm - N/A   Overcast
9:53 PM 55.9 °F 53.1 °F 90% 29.91 in 10.0 mi NNE 3.5 mph - N/A   Overcast
10:53 PM 55.9 °F 53.1 °F 90% 29.91 in 10.0 mi Calm Calm - N/A   Overcast
11:04 PM 55.4 °F 53.6 °F 94% 29.91 in 10.0 mi Calm Calm - N/A   Overcast
11:30 PM 55.4 °F 53.6 °F 94% 29.91 in 10.0 mi Calm Calm - N/A   Overcast
11:53 PM 55.9 °F 53.1 °F 90% 29.91 in 10.0 mi Calm Calm - N/A   Overcast